User: anonymous   Login
Location: Kunchanapalle
(16.4623°N, 80.6176°E)
Time: 07:32:30
(UTC+00:00)
Language:

Cosmos 1805 Rocket - Orbit

View from above orbital plane
View from above orbital plane
View from above satellite
View from above satellite

Ground track
Ground track

The orbit data is extracted from the following two-line orbital elements,

1 17192U 86097B   20296.19563108  .00000091  00000-0  81245-5 0  9997
2 17192  82.5092 188.5425 0017872  34.1546  78.7611 14.83616940830002
Epoch (UTC): 22 October 2020 04:41:42
Eccentricity: 0.0017872
inclination: 82.5092°
perigee height: 605 km
apogee height: 630 km
right ascension of ascending node: 188.5425°
argument of perigee: 34.1546°
revolutions per day: 14.83616940
mean anomaly at epoch: 78.7611°
orbit number at epoch: 83000

The dashed part of the orbit path shows where the satellite is in the earth's shadow,  

DLR